NI4CE-14 Weather Reports


Display with metric or nautical units.
time (UTC)temp
F
wind
direction
speed
MPH
gust
MPH
rain 1hr
in
rain 24hr
in
rain mn
in
humidity
%
barometer
mb
20260503220318 82 0 8.0 9.0 0.00 0.00 0.00 100 1013.5
20260503215818 82 75 3.0 8.0 0.00 0.00 0.00 100 1013.6
20260503215318 83 322 5.0 11.0 0.00 0.00 0.00 100 1013.6
20260503214818 83 66 2.0 10.0 0.00 0.00 0.00 100 1013.6
20260503214318 83 28 2.0 9.0 0.00 0.00 0.00 100 1013.6
20260503213818 83 9 4.0 10.0 0.00 0.00 0.00 100 1013.4
20260503213318 82 59 1.0 11.0 0.00 0.00 0.00 100 1013.4
20260503213036 82 26 2.0 9.0 0.00 0.00 0.00 100 1013.4
20260503212818 82 26 2.0 9.0 0.00 0.00 0.00 100 1013.4
20260503212613 82 80 5.0 11.0 0.00 0.00 0.00 100 1013.5
20260503212318 82 80 5.0 11.0 0.00 0.00 0.00 100 1013.5
20260503211818 83 45 7.0 11.0 0.00 0.00 0.00 100 1013.5
20260503211318 83 85 5.0 11.0 0.00 0.00 0.00 100 1013.5
20260503210818 83 104 1.0 10.0 0.00 0.00 0.00 100 1013.5
20260503210318 83 348 2.0 10.0 0.00 0.00 0.00 100 1013.5
20260503205818 82 16 1.0 10.0 0.00 0.00 0.00 100 1013.6
20260503205318 83 4 6.0 10.0 0.00 0.00 0.00 100 1013.5
20260503204818 83 327 10.0 10.0 0.00 0.00 0.00 100 1013.6
20260503204318 83 47 3.0 11.0 0.00 0.00 0.00 100 1013.6
20260503203818 83 19 4.0 11.0 0.00 0.00 0.00 100 1013.4
20260503203319 83 5 5.0 11.0 0.00 0.00 0.00 100 1013.5
20260503202819 83 61 1.0 11.0 0.00 0.00 0.00 100 1013.6
20260503202319 83 37 1.0 11.0 0.00 0.00 0.00 100 1013.6
20260503201818 83 9 5.0 11.0 0.00 0.00 0.00 100 1013.3
20260503201318 83 19 9.0 12.0 0.00 0.00 0.00 100 1013.8
20260503200819 83 102 3.0 13.0 0.00 0.00 0.00 100 1013.9
20260503200319 83 326 8.0 11.0 0.00 0.00 0.00 100 1013.9
20260503195818 84 327 6.0 11.0 0.00 0.00 0.00 100 1014.1
20260503195319 83 63 9.0 12.0 0.00 0.00 0.00 100 1014.1
20260503195235 83 43 6.0 11.0 0.00 0.00 0.00 100 1014.3
20260503194819 83 43 6.0 11.0 0.00 0.00 0.00 100 1014.3
20260503194319 83 33 9.0 11.0 0.00 0.00 0.00 100 1014.2
20260503193819 83 47 3.0 11.0 0.00 0.00 0.00 100 1014.1
20260503193319 83 5 5.0 12.0 0.00 0.00 0.00 100 1014.3
20260503192819 84 32 6.0 9.0 0.00 0.00 0.00 100 1014.3
20260503192319 83 53 5.0 10.0 0.00 0.00 0.00 100 1014.5
20260503191819 83 42 9.0 14.0 0.00 0.00 0.00 100 1014.6
20260503191610 83 68 6.0 11.0 0.00 0.00 0.00 100 1014.6
20260503191319 83 68 6.0 11.0 0.00 0.00 0.00 100 1014.6
20260503190819 83 46 6.0 10.0 0.00 0.00 0.00 100 1014.8
20260503190319 83 40 7.0 14.0 0.00 0.00 0.00 100 1014.8
20260503185819 83 56 6.0 10.0 0.00 0.00 0.00 100 1014.9
20260503185319 82 21 7.0 12.0 0.00 0.00 0.00 100 1015.0
20260503184819 83 82 2.0 11.0 0.00 0.00 0.00 100 1015.2
20260503184319 83 352 8.0 13.0 0.00 0.00 0.00 100 1015.2
20260503184251 83 25 13.0 13.0 0.00 0.00 0.00 100 1015.3
20260503184218 83 25 13.0 13.0 0.00 0.00 0.00 100 1015.3
20260503183819 83 25 13.0 13.0 0.00 0.00 0.00 100 1015.3
20260503183319 83 77 9.0 10.0 0.00 0.00 0.00 100 1015.2
20260503182819 83 46 6.0 10.0 0.00 0.00 0.00 100 1015.3
20260503182319 83 35 5.0 8.0 0.00 0.00 0.00 100 1015.4
20260503181819 85 23 1.0 8.0 0.00 0.00 0.00 100 1015.5
20260503181319 85 90 5.0 6.0 0.00 0.00 0.00 100 1015.5
20260503180819 85 352 0.0 4.0 0.00 0.00 0.00 100 1015.5
20260503180424 85 113 2.0 6.0 0.00 0.00 0.00 100 1015.5
20260503180319 85 113 2.0 6.0 0.00 0.00 0.00 100 1015.5
20260503175819 85 92 2.0 8.0 0.00 0.00 0.00 100 1015.5
20260503175319 85 144 1.0 3.0 0.00 0.00 0.00 100 1015.5
20260503175257 84 165 2.0 4.0 0.00 0.00 0.00 100 1015.6
20260503174819 84 165 2.0 4.0 0.00 0.00 0.00 100 1015.6
20260503174325 84 66 3.0 7.0 0.00 0.00 0.00 100 1015.6
20260503174319 84 154 3.0 5.0 0.00 0.00 0.00 100 1015.6
20260503173819 84 66 3.0 7.0 0.00 0.00 0.00 100 1015.6
20260503173319 84 105 0.0 6.0 0.00 0.00 0.00 100 1015.6
20260503172819 83 75 3.0 6.0 0.00 0.00 0.00 100 1015.6
20260503172319 83 81 3.0 10.0 0.00 0.00 0.00 100 1015.8
20260503171819 83 163 3.0 7.0 0.00 0.00 0.00 100 1015.7
20260503171319 83 45 4.0 8.0 0.00 0.00 0.00 100 1015.8
20260503170819 82 102 3.0 9.0 0.00 0.00 0.00 100 1016.0
20260503170319 82 171 2.0 11.0 0.00 0.00 0.00 100 1016.1
20260503150819 79 30 3.0 9.0 0.00 0.00 0.00 100 1016.8
20260503150319 78 81 5.0 9.0 0.00 0.00 0.00 100 1016.8
20260503131319 76 213 1.0 9.0 0.00 0.00 0.00 100 1015.8
20260503130819 76 80 6.0 10.0 0.00 0.00 0.00 100 1015.9
20260503130606 75 329 3.0 10.0 0.00 0.00 0.00 100 1015.7
20260503130319 75 94 4.0 9.0 0.00 0.00 0.00 100 1015.1
20260503120138 74 112 1.0 9.0 0.00 0.00 0.00 100 1015.1
20260503110819 74 80 7.0 11.0 0.00 0.00 0.00 100 1014.9
20260503110319 74 85 1.0 10.0 0.00 0.00 0.00 100 1014.7
20260503090320 74 80 3.0 6.0 0.00 0.00 0.00 100 1013.9
20260503081320 74 50 0.0 10.0 0.00 0.00 0.00 100 1013.3
20260503080820 74 142 3.0 14.0 0.00 0.00 0.00 100 1013.3
20260503080320 74 39 4.0 10.0 0.00 0.00 0.00 100 1013.3
20260503072820 75 75 2.0 9.0 0.00 0.00 0.00 100 1013.1
20260503072320 75 88 1.0 7.0 0.00 0.00 0.00 100 1013.1
20260503072105 75 99 2.0 9.0 0.00 0.00 0.00 100 1013.1
20260503071820 75 99 2.0 9.0 0.00 0.00 0.00 100 1013.1
20260503071320 75 47 1.0 9.0 0.00 0.00 0.00 100 1013.0
20260503070820 75 66 3.0 8.0 0.00 0.00 0.00 100 1013.0
20260503070641 76 11 5.0 7.0 0.00 0.00 0.00 100 1013.1
20260503070320 76 11 5.0 7.0 0.00 0.00 0.00 100 1013.1
20260503070141 76 157 2.0 9.0 0.00 0.00 0.00 100 1013.2
20260503060320 77 139 1.0 6.0 0.00 0.00 0.00 100 1013.6
20260503060143 77 49 2.0 6.0 0.00 0.00 0.00 100 1013.4
20260503054820 77 106 4.0 4.0 0.00 0.00 0.00 100 1013.4
20260503054320 77 88 2.0 3.0 0.00 0.00 0.00 100 1013.4
20260503053820 77 84 1.0 9.0 0.00 0.00 0.00 100 1013.4
20260503053320 77 50 3.0 6.0 0.00 0.00 0.00 100 1013.4
20260503052820 77 43 3.0 6.0 0.00 0.00 0.00 100 1013.3
20260503052640 77 15 1.0 8.0 0.00 0.00 0.00 100 1013.4
20260503052320 77 15 1.0 8.0 0.00 0.00 0.00 100 1013.4
20260503051820 77 95 5.0 9.0 0.00 0.00 0.00 100 1013.5
20260503051320 77 30 5.0 7.0 0.00 0.00 0.00 100 1013.5
20260503050820 77 99 3.0 9.0 0.00 0.00 0.00 100 1013.3
20260503050320 77 73 6.0 10.0 0.00 0.00 0.00 100 1013.1
20260503050016 77 70 4.0 6.0 0.00 0.00 0.00 100 1013.1
20260503045820 77 243 0.0 13.0 0.00 0.00 0.00 100 1013.0
20260503045320 77 70 4.0 6.0 0.00 0.00 0.00 100 1013.1
20260503044820 77 85 3.0 9.0 0.00 0.00 0.00 100 1013.0
20260503044612 77 30 6.0 10.0 0.00 0.00 0.00 100 1013.0
20260503044320 77 30 6.0 10.0 0.00 0.00 0.00 100 1013.0
20260503043820 78 75 5.0 11.0 0.00 0.00 0.00 100 1012.8
20260503043320 78 123 2.0 9.0 0.00 0.00 0.00 100 1012.9
20260503042820 78 59 2.0 11.0 0.00 0.00 0.00 100 1012.9
20260503042744 78 77 5.0 10.0 0.00 0.00 0.00 100 1012.7
20260503042320 78 77 5.0 10.0 0.00 0.00 0.00 100 1012.7
20260503041820 78 54 1.0 9.0 0.00 0.00 0.00 100 1012.7
20260503041638 78 32 5.0 11.0 0.00 0.00 0.00 100 1012.7
20260503041453 78 32 5.0 11.0 0.00 0.00 0.00 100 1012.7
20260503041320 78 32 5.0 11.0 0.00 0.00 0.00 100 1012.7
20260503040820 78 45 8.0 11.0 0.00 0.00 0.00 100 1012.8
20260503040320 78 341 1.0 8.0 0.00 0.00 0.00 100 1012.6
20260503035820 78 84 1.0 12.0 0.00 0.00 0.00 100 1012.6
20260503035320 78 350 6.0 9.0 0.00 0.00 0.00 100 1012.4
20260503034820 78 63 3.0 14.0 0.00 0.00 0.00 100 1012.2
20260503034320 79 57 3.0 12.0 0.00 0.00 0.00 100 1012.2
20260503033820 79 64 7.0 14.0 0.00 0.00 0.00 100 1012.2
20260503033320 79 36 6.0 11.0 0.00 0.00 0.00 100 1012.2
20260503032825 79 8 6.0 12.0 0.00 0.00 0.00 100 1012.1
20260503032820 79 157 1.0 14.0 0.00 0.00 0.00 100 1012.2
20260503032320 79 8 6.0 12.0 0.00 0.00 0.00 100 1012.1
20260503031820 79 64 4.0 15.0 0.00 0.00 0.00 100 1012.0
20260503031320 79 8 10.0 14.0 0.00 0.00 0.00 100 1011.9
20260503030820 79 49 6.0 13.0 0.00 0.00 0.00 100 1011.7
20260503030320 79 8 6.0 9.0 0.00 0.00 0.00 100 1011.7
20260503030148 79 94 6.0 10.0 0.00 0.00 0.00 100 1011.4
20260503025820 79 94 6.0 10.0 0.00 0.00 0.00 100 1011.4
20260503025320 79 33 4.0 14.0 0.00 0.00 0.00 100 1011.7
20260503024820 79 11 5.0 13.0 0.00 0.00 0.00 100 1011.6
20260503024320 79 22 4.0 10.0 0.00 0.00 0.00 100 1011.4
20260503023820 79 12 2.0 11.0 0.00 0.00 0.00 100 1011.4
20260503023320 79 26 5.0 12.0 0.00 0.00 0.00 100 1011.3
20260503023318 79 36 3.0 11.0 0.00 0.00 0.00 100 1011.2
20260503022820 79 36 3.0 11.0 0.00 0.00 0.00 100 1011.2
20260503022320 79 358 11.0 11.0 0.00 0.00 0.00 100 1011.2
20260503021820 80 8 6.0 11.0 0.00 0.00 0.00 100 1011.1
20260503021320 80 2 3.0 11.0 0.00 0.00 0.00 100 1011.2
20260503021159 80 7 4.0 11.0 0.00 0.00 0.00 100 1011.2
20260503020820 80 11 4.0 8.0 0.00 0.00 0.00 100 1011.1
20260503020320 80 7 4.0 11.0 0.00 0.00 0.00 100 1011.2
20260503015820 80 2 1.0 10.0 0.00 0.00 0.00 100 1011.1
20260503015320 80 42 5.0 9.0 0.00 0.00 0.00 100 1011.2
20260503014820 80 23 5.0 9.0 0.00 0.00 0.00 100 1011.0
20260503014320 80 7 5.0 7.0 0.00 0.00 0.00 100 1010.8
20260503013820 80 331 3.0 7.0 0.00 0.00 0.00 100 1010.7
20260503013341 80 345 3.0 8.0 0.00 0.00 0.00 100 1010.2
20260503013320 80 37 4.0 9.0 0.00 0.00 0.00 100 1010.4
20260503012820 80 345 3.0 8.0 0.00 0.00 0.00 100 1010.2
20260503012608 80 68 4.0 5.0 0.00 0.00 0.00 100 1010.1
20260503012320 80 12 0.0 6.0 0.00 0.00 0.00 100 1010.1
20260503011820 80 68 4.0 5.0 0.00 0.00 0.00 100 1010.1
20260503011320 80 33 0.0 8.0 0.00 0.00 0.00 100 1010.1
20260503010820 80 293 0.0 5.0 0.00 0.00 0.00 100 1010.0
20260503010320 80 5 3.0 6.0 0.00 0.00 0.00 100 1007.7
20260503005820 80 8 3.0 7.0 0.00 0.00 0.00 100 1009.4
20260503005320 80 351 5.0 7.0 0.00 0.00 0.00 100 1007.6
20260503004820 80 347 0.0 2.0 0.00 0.00 0.00 100 1008.0
20260503004320 80 14 0.0 3.0 0.00 0.00 0.00 100 1007.6
20260503003820 80 316 0.0 0.0 0.00 0.00 0.00 100 1007.4
20260503003320 80 316 0.0 0.0 0.00 0.00 0.00 100 1008.2
20260503002820 80 267 0.0 4.0 0.00 0.00 0.00 100 1009.3
20260503002320 80 357 0.0 0.0 0.00 0.00 0.00 100 1009.4
20260503001820 80 357 0.0 0.0 0.00 0.00 0.00 100 1009.3
20260503001320 80 357 0.0 0.0 0.00 0.00 0.00 100 1009.0
20260503000820 80 357 0.0 2.0 0.00 0.00 0.00 100 1009.1
20260503000320 80 246 0.0 5.0 0.00 0.00 0.00 100 1009.0
20260502235820 80 23 0.0 1.0 0.00 0.00 0.00 100 1009.0
20260502235320 80 355 0.0 0.0 0.00 0.00 0.00 100 1009.0
20260502234820 80 355 0.0 2.0 0.00 0.00 0.00 100 1009.0
20260502234320 80 338 0.0 0.0 0.00 0.00 0.00 100 1008.9
20260502233820 80 338 0.0 0.0 0.00 0.00 0.00 100 1009.0
20260502233320 80 338 0.0 4.0 0.00 0.00 0.00 100 1009.3
20260502232820 80 282 0.0 2.0 0.00 0.00 0.00 100 1009.2
20260502232320 80 327 0.0 1.0 0.00 0.00 0.00 100 1008.6
20260502231820 80 274 0.0 0.0 0.00 0.00 0.00 100 1009.0
20260502231320 80 274 0.0 6.0 0.00 0.00 0.00 100 1009.0
20260502230820 80 241 0.0 5.0 0.00 0.00 0.00 100 1008.9
20260502230320 80 261 1.0 3.0 0.00 0.00 0.00 100 1009.0
20260502225820 80 319 0.0 1.0 0.00 0.00 0.00 100 1008.9
20260502225320 80 334 0.0 4.0 0.00 0.00 0.00 100 1009.0
20260502225024 80 288 0.0 4.0 0.00 0.00 0.00 100 1009.0
20260502224820 80 288 0.0 4.0 0.00 0.00 0.00 100 1009.0
20260502224320 80 329 0.0 3.0 0.00 0.00 0.00 100 1009.0
20260502223820 80 347 0.0 0.0 0.00 0.00 0.00 100 1009.0
20260502223320 80 347 0.0 0.0 0.00 0.00 0.00 100 1009.0
20260502222820 80 306 0.0 3.0 0.00 0.00 0.00 100 1009.1
20260502222320 80 323 0.0 5.0 0.00 0.00 0.00 100 1008.7
20260502221820 80 307 0.0 4.0 0.00 0.00 0.00 100 1008.6
20260502221320 80 355 0.0 2.0 0.00 0.00 0.00 100 1008.5
20260502220820 80 317 0.0 5.0 0.00 0.00 0.00 100 1008.5